Year,Month,Day,Hour,Minute,Value (Times are PST for temperature in C)
2006,04,16,00,00,4.50
2006,04,16,00,01,4.50
2006,04,16,00,02,4.50
2006,04,16,00,03,4.50
2006,04,16,00,04,4.60
2006,04,16,00,05,4.60
2006,04,16,00,06,4.60
2006,04,16,00,07,4.60
2006,04,16,00,08,4.60
2006,04,16,00,09,4.60
2006,04,16,00,10,4.60
2006,04,16,00,11,4.60
2006,04,16,00,12,4.60
2006,04,16,00,13,4.60
2006,04,16,00,14,4.60
2006,04,16,00,15,4.60
2006,04,16,00,16,4.60
2006,04,16,00,17,4.60
2006,04,16,00,18,4.70
2006,04,16,00,19,4.60
2006,04,16,00,20,4.60
2006,04,16,00,21,4.60
2006,04,16,00,22,4.60
2006,04,16,00,23,4.60
2006,04,16,00,24,4.60
2006,04,16,00,25,4.60
2006,04,16,00,26,4.60
2006,04,16,00,27,4.60
2006,04,16,00,28,4.60
2006,04,16,00,29,4.60
2006,04,16,00,30,4.60
2006,04,16,00,31,4.60
2006,04,16,00,32,4.60
2006,04,16,00,33,4.50
2006,04,16,00,34,4.50
2006,04,16,00,35,4.50
2006,04,16,00,36,4.50
2006,04,16,00,37,4.40
2006,04,16,00,38,4.40
2006,04,16,00,39,4.40
2006,04,16,00,40,4.30
2006,04,16,00,41,4.30
2006,04,16,00,42,4.20
2006,04,16,00,43,4.20
2006,04,16,00,44,4.20
2006,04,16,00,45,4.20
2006,04,16,00,46,4.20
2006,04,16,00,47,4.10
2006,04,16,00,48,4.10
2006,04,16,00,49,4.10
2006,04,16,00,50,4.10
2006,04,16,00,51,4.10
2006,04,16,00,52,4.00
2006,04,16,00,53,4.00
2006,04,16,00,54,4.00
2006,04,16,00,55,4.00
2006,04,16,00,56,4.00
2006,04,16,00,57,3.90
2006,04,16,00,58,3.90
2006,04,16,00,59,3.90
2006,04,16,01,00,3.90
2006,04,16,01,01,3.90
2006,04,16,01,02,3.90
2006,04,16,01,03,3.90
2006,04,16,01,04,3.90
2006,04,16,01,05,4.00
2006,04,16,01,06,4.00
2006,04,16,01,07,4.10
2006,04,16,01,08,4.10
2006,04,16,01,09,4.20
2006,04,16,01,10,4.20
2006,04,16,01,11,4.20
2006,04,16,01,12,4.20
2006,04,16,01,13,4.20
2006,04,16,01,14,4.20
2006,04,16,01,15,4.20
2006,04,16,01,16,4.30
2006,04,16,01,17,4.30
2006,04,16,01,18,4.30
2006,04,16,01,19,4.30
2006,04,16,01,20,4.30
2006,04,16,01,21,4.30
2006,04,16,01,22,4.30
2006,04,16,01,23,4.30
2006,04,16,01,24,4.40
2006,04,16,01,25,4.40
2006,04,16,01,26,4.40
2006,04,16,01,27,4.40
2006,04,16,01,28,4.40
2006,04,16,01,29,4.50
2006,04,16,01,30,4.50
2006,04,16,01,31,4.50
2006,04,16,01,32,4.50
2006,04,16,01,33,4.50
2006,04,16,01,34,4.50
2006,04,16,01,35,4.50
2006,04,16,01,36,4.50
2006,04,16,01,37,4.50
2006,04,16,01,38,4.50
2006,04,16,01,39,4.50
2006,04,16,01,40,4.40
2006,04,16,01,41,4.40
2006,04,16,01,42,4.40
2006,04,16,01,43,4.30
2006,04,16,01,44,4.30
2006,04,16,01,45,4.20
2006,04,16,01,46,4.20
2006,04,16,01,47,4.20
2006,04,16,01,48,4.10
2006,04,16,01,49,4.10
2006,04,16,01,50,4.00
2006,04,16,01,51,4.00
2006,04,16,01,52,4.00
2006,04,16,01,53,3.90
2006,04,16,01,54,3.90
2006,04,16,01,55,3.90
2006,04,16,01,56,3.80
2006,04,16,01,57,3.80
2006,04,16,01,58,3.80
2006,04,16,01,59,3.80
2006,04,16,02,00,3.80
2006,04,16,02,01,3.80
2006,04,16,02,02,3.70
2006,04,16,02,03,3.70
2006,04,16,02,04,3.70
2006,04,16,02,05,3.60
2006,04,16,02,06,3.60
2006,04,16,02,07,3.60
2006,04,16,02,08,3.60
2006,04,16,02,09,3.50
2006,04,16,02,10,3.50
2006,04,16,02,11,3.50
2006,04,16,02,12,3.50
2006,04,16,02,13,3.40
2006,04,16,02,14,3.40
2006,04,16,02,15,3.40
2006,04,16,02,16,3.40
2006,04,16,02,17,3.40
2006,04,16,02,18,3.30
2006,04,16,02,19,3.30
2006,04,16,02,20,3.30
2006,04,16,02,21,3.30
2006,04,16,02,22,3.30
2006,04,16,02,23,3.30
2006,04,16,02,24,3.30
2006,04,16,02,25,3.30
2006,04,16,02,26,3.30
2006,04,16,02,27,3.30
2006,04,16,02,28,3.20
2006,04,16,02,29,3.20
2006,04,16,02,30,3.10
2006,04,16,02,31,3.10
2006,04,16,02,32,3.10
2006,04,16,02,33,3.10
2006,04,16,02,34,3.10
2006,04,16,02,35,3.10
2006,04,16,02,36,3.10
2006,04,16,02,37,3.10
2006,04,16,02,38,3.10
2006,04,16,02,39,3.10
2006,04,16,02,40,3.10
2006,04,16,02,41,3.10
2006,04,16,02,42,3.10
2006,04,16,02,43,3.00
2006,04,16,02,44,2.90
2006,04,16,02,45,2.90
2006,04,16,02,46,2.90
2006,04,16,02,47,2.90
2006,04,16,02,48,2.90
2006,04,16,02,49,2.90
2006,04,16,02,50,2.90
2006,04,16,02,51,2.90
2006,04,16,02,52,2.90
2006,04,16,02,53,2.90
2006,04,16,02,54,2.80
2006,04,16,02,55,2.80
2006,04,16,02,56,2.80
2006,04,16,02,57,2.80
2006,04,16,02,58,2.80
2006,04,16,02,59,2.70
2006,04,16,03,00,2.70
2006,04,16,03,01,2.70
2006,04,16,03,02,2.70
2006,04,16,03,03,2.70
2006,04,16,03,04,2.70
2006,04,16,03,05,2.70
2006,04,16,03,06,2.60
2006,04,16,03,07,2.60
2006,04,16,03,08,2.60
2006,04,16,03,09,2.50
2006,04,16,03,10,2.50
2006,04,16,03,11,2.50
2006,04,16,03,12,2.50
2006,04,16,03,13,2.40
2006,04,16,03,14,2.40
2006,04,16,03,15,2.40
2006,04,16,03,16,2.40
2006,04,16,03,17,2.40
2006,04,16,03,18,2.40
2006,04,16,03,19,2.40
2006,04,16,03,20,2.40
2006,04,16,03,21,2.40
2006,04,16,03,22,2.40
2006,04,16,03,23,2.40
2006,04,16,03,24,2.50
2006,04,16,03,25,2.50
2006,04,16,03,26,2.50
2006,04,16,03,27,2.50
2006,04,16,03,28,2.50
2006,04,16,03,29,2.50
2006,04,16,03,30,2.50
2006,04,16,03,31,2.50
2006,04,16,03,32,2.60
2006,04,16,03,33,2.60
2006,04,16,03,34,2.60
2006,04,16,03,35,2.60
2006,04,16,03,36,2.60
2006,04,16,03,37,2.60
2006,04,16,03,38,2.60
2006,04,16,03,39,2.60
2006,04,16,03,40,2.60
2006,04,16,03,41,2.60
2006,04,16,03,42,2.70
2006,04,16,03,43,2.70
2006,04,16,03,44,2.70
2006,04,16,03,45,2.70
2006,04,16,03,46,2.70
2006,04,16,03,47,2.70
2006,04,16,03,48,2.70
2006,04,16,03,49,2.70
2006,04,16,03,50,2.70
2006,04,16,03,51,2.70
2006,04,16,03,52,2.70
2006,04,16,03,53,2.70
2006,04,16,03,54,2.70
2006,04,16,03,55,2.70
2006,04,16,03,56,2.70
2006,04,16,03,57,2.80
2006,04,16,03,58,2.80
2006,04,16,03,59,2.80
2006,04,16,04,00,2.80
2006,04,16,04,01,2.80
2006,04,16,04,02,2.90
2006,04,16,04,03,2.90
2006,04,16,04,04,2.90
2006,04,16,04,05,2.90
2006,04,16,04,06,2.90
2006,04,16,04,07,2.90
2006,04,16,04,08,2.90
2006,04,16,04,09,2.90
2006,04,16,04,10,2.90
2006,04,16,04,11,2.90
2006,04,16,04,12,2.90
2006,04,16,04,13,2.90
2006,04,16,04,14,2.90
2006,04,16,04,15,2.90
2006,04,16,04,16,2.90
2006,04,16,04,17,2.90
2006,04,16,04,18,2.90
2006,04,16,04,19,2.90
2006,04,16,04,20,2.90
2006,04,16,04,21,2.90
2006,04,16,04,22,2.90
2006,04,16,04,23,2.90
2006,04,16,04,24,2.90
2006,04,16,04,25,2.90
2006,04,16,04,26,2.90
2006,04,16,04,27,2.90
2006,04,16,04,28,2.90
2006,04,16,04,29,2.90
2006,04,16,04,30,3.00
2006,04,16,04,31,3.10
2006,04,16,04,32,3.10
2006,04,16,04,33,3.10
2006,04,16,04,34,3.10
2006,04,16,04,35,3.10
2006,04,16,04,36,3.10
2006,04,16,04,37,3.10
2006,04,16,04,38,3.10
2006,04,16,04,39,3.10
2006,04,16,04,40,3.10
2006,04,16,04,41,3.10
2006,04,16,04,42,3.10
2006,04,16,04,43,3.10
2006,04,16,04,44,3.10
2006,04,16,04,45,3.10
2006,04,16,04,46,3.10
2006,04,16,04,47,3.10
2006,04,16,04,48,3.10
2006,04,16,04,49,3.10
2006,04,16,04,50,3.10
2006,04,16,04,51,3.10
2006,04,16,04,52,3.10
2006,04,16,04,53,3.10
2006,04,16,04,54,3.10
2006,04,16,04,55,3.10
2006,04,16,04,56,3.10
2006,04,16,04,57,3.10
2006,04,16,04,58,3.10
2006,04,16,04,59,3.10
2006,04,16,05,00,3.10
2006,04,16,05,01,3.10
2006,04,16,05,02,3.10
2006,04,16,05,03,3.10
2006,04,16,05,04,3.10
2006,04,16,05,05,3.10
2006,04,16,05,06,3.10
2006,04,16,05,07,3.10
2006,04,16,05,08,3.10
2006,04,16,05,09,3.10
2006,04,16,05,10,3.10
2006,04,16,05,11,3.10
2006,04,16,05,12,3.20
2006,04,16,05,13,3.20
2006,04,16,05,14,3.20
2006,04,16,05,15,3.20
2006,04,16,05,16,3.20
2006,04,16,05,17,3.20
2006,04,16,05,18,3.20
2006,04,16,05,19,3.20
2006,04,16,05,20,3.20
2006,04,16,05,21,3.20
2006,04,16,05,22,3.20
2006,04,16,05,23,3.20
2006,04,16,05,24,3.20
2006,04,16,05,25,3.20
2006,04,16,05,26,3.20
2006,04,16,05,27,3.20
2006,04,16,05,28,3.20
2006,04,16,05,29,3.20
2006,04,16,05,30,3.20
2006,04,16,05,31,3.20
2006,04,16,05,32,3.20
2006,04,16,05,33,3.20
2006,04,16,05,34,3.20
2006,04,16,05,35,3.20
2006,04,16,05,36,3.20
2006,04,16,05,37,3.20
2006,04,16,05,38,3.20
2006,04,16,05,39,3.20
2006,04,16,05,40,3.20
2006,04,16,05,41,3.20
2006,04,16,05,42,3.20
2006,04,16,05,43,3.20
2006,04,16,05,44,3.20
2006,04,16,05,45,3.20
2006,04,16,05,46,3.20
2006,04,16,05,47,3.20
2006,04,16,05,48,3.20
2006,04,16,05,49,3.20
2006,04,16,05,50,3.20
2006,04,16,05,51,3.20
2006,04,16,05,52,3.20
2006,04,16,05,53,3.10
2006,04,16,05,54,3.10
2006,04,16,05,55,3.10
2006,04,16,05,56,3.10
2006,04,16,05,57,3.10
2006,04,16,05,58,3.10
2006,04,16,05,59,3.10
2006,04,16,06,00,3.10
2006,04,16,06,01,3.10
2006,04,16,06,02,3.10
2006,04,16,06,03,3.10
2006,04,16,06,04,3.10
2006,04,16,06,05,3.10
2006,04,16,06,06,3.10
2006,04,16,06,07,3.10
2006,04,16,06,08,3.10
2006,04,16,06,09,3.10
2006,04,16,06,10,3.10
2006,04,16,06,11,3.10
2006,04,16,06,12,3.10
2006,04,16,06,13,3.10
2006,04,16,06,14,3.10
2006,04,16,06,15,3.10
2006,04,16,06,16,3.10
2006,04,16,06,17,3.10
2006,04,16,06,18,3.10
2006,04,16,06,19,3.10
2006,04,16,06,20,3.10
2006,04,16,06,21,3.10
2006,04,16,06,22,3.10
2006,04,16,06,23,3.10
2006,04,16,06,24,3.10
2006,04,16,06,25,3.10
2006,04,16,06,26,3.10
2006,04,16,06,27,3.10
2006,04,16,06,28,3.10
2006,04,16,06,29,3.10
2006,04,16,06,30,3.10
2006,04,16,06,31,3.10
2006,04,16,06,32,3.10
2006,04,16,06,33,3.10
2006,04,16,06,34,3.10
2006,04,16,06,35,3.10
2006,04,16,06,36,3.10
2006,04,16,06,37,3.00
2006,04,16,06,38,2.90
2006,04,16,06,39,2.90
2006,04,16,06,40,2.90
2006,04,16,06,41,2.90
2006,04,16,06,42,2.90
2006,04,16,06,43,2.90
2006,04,16,06,44,2.90
2006,04,16,06,45,2.90
2006,04,16,06,46,2.90
2006,04,16,06,47,2.90
2006,04,16,06,48,2.90
2006,04,16,06,49,2.90
2006,04,16,06,50,2.90
2006,04,16,06,51,2.90
2006,04,16,06,52,2.90
2006,04,16,06,53,2.90
2006,04,16,06,54,2.90
2006,04,16,06,55,2.90
2006,04,16,06,56,2.90
2006,04,16,06,57,2.90
2006,04,16,06,58,2.90
2006,04,16,06,59,2.90
2006,04,16,07,00,2.90
2006,04,16,07,01,2.90
2006,04,16,07,02,2.90
2006,04,16,07,03,2.90
2006,04,16,07,04,2.90
2006,04,16,07,05,2.90
2006,04,16,07,06,2.90
2006,04,16,07,07,3.00
2006,04,16,07,08,3.10
2006,04,16,07,09,3.10
2006,04,16,07,10,3.10
2006,04,16,07,11,3.10
2006,04,16,07,12,3.10
2006,04,16,07,13,3.10
2006,04,16,07,14,3.10
2006,04,16,07,15,3.10
2006,04,16,07,16,3.10
2006,04,16,07,17,3.10
2006,04,16,07,18,3.20
2006,04,16,07,19,3.20
2006,04,16,07,20,3.20
2006,04,16,07,21,3.20
2006,04,16,07,22,3.30
2006,04,16,07,23,3.30
2006,04,16,07,24,3.30
2006,04,16,07,25,3.30
2006,04,16,07,26,3.30
2006,04,16,07,27,3.30
2006,04,16,07,28,3.30
2006,04,16,07,29,3.30
2006,04,16,07,30,3.30
2006,04,16,07,31,3.30
2006,04,16,07,32,3.30
2006,04,16,07,33,3.30
2006,04,16,07,34,3.30
2006,04,16,07,35,3.30
2006,04,16,07,36,3.30
2006,04,16,07,37,3.40
2006,04,16,07,38,3.40
2006,04,16,07,39,3.40
2006,04,16,07,40,3.40
2006,04,16,07,41,3.40
2006,04,16,07,42,3.40
2006,04,16,07,43,3.40
2006,04,16,07,44,3.40
2006,04,16,07,45,3.40
2006,04,16,07,46,3.40
2006,04,16,07,47,3.50
2006,04,16,07,48,3.50
2006,04,16,07,49,3.50
2006,04,16,07,50,3.50
2006,04,16,07,51,3.50
2006,04,16,07,52,3.50
2006,04,16,07,53,3.50
2006,04,16,07,54,3.50
2006,04,16,07,55,3.50
2006,04,16,07,56,3.50
2006,04,16,07,57,3.50
2006,04,16,07,58,3.50
2006,04,16,07,59,3.50
2006,04,16,08,00,3.50
2006,04,16,08,01,3.60
2006,04,16,08,02,3.60
2006,04,16,08,03,3.70
2006,04,16,08,04,3.70
2006,04,16,08,05,3.80
2006,04,16,08,06,3.80
2006,04,16,08,07,3.90
2006,04,16,08,08,4.00
2006,04,16,08,09,4.00
2006,04,16,08,10,4.10
2006,04,16,08,11,4.20
2006,04,16,08,12,4.30
2006,04,16,08,13,4.30
2006,04,16,08,14,4.40
2006,04,16,08,15,4.50
2006,04,16,08,16,4.60
2006,04,16,08,17,4.60
2006,04,16,08,18,4.70
2006,04,16,08,19,4.80
2006,04,16,08,20,4.80
2006,04,16,08,21,4.90
2006,04,16,08,22,5.00
2006,04,16,08,23,5.10
2006,04,16,08,24,5.10
2006,04,16,08,25,5.20
2006,04,16,08,26,5.30
2006,04,16,08,27,5.30
2006,04,16,08,28,5.50
2006,04,16,08,29,5.60
2006,04,16,08,30,5.70
2006,04,16,08,31,5.70
2006,04,16,08,32,5.80
2006,04,16,08,33,5.90
2006,04,16,08,34,6.00
2006,04,16,08,35,6.00
2006,04,16,08,36,6.10
2006,04,16,08,37,6.20
2006,04,16,08,38,6.20
2006,04,16,08,39,6.20
2006,04,16,08,40,6.20
2006,04,16,08,41,6.20
2006,04,16,08,42,6.30
2006,04,16,08,43,6.30
2006,04,16,08,44,6.20
2006,04,16,08,45,6.20
2006,04,16,08,46,6.20
2006,04,16,08,47,6.20
2006,04,16,08,48,6.20
2006,04,16,08,49,6.20
2006,04,16,08,50,6.20
2006,04,16,08,51,6.20
2006,04,16,08,52,6.20
2006,04,16,08,53,6.20
2006,04,16,08,54,6.10
2006,04,16,08,55,6.10
2006,04,16,08,56,6.10
2006,04,16,08,57,6.10
2006,04,16,08,58,6.10
2006,04,16,08,59,6.00
2006,04,16,09,00,6.00
2006,04,16,09,01,6.00
2006,04,16,09,02,6.00
2006,04,16,09,03,6.00
2006,04,16,09,04,6.00
2006,04,16,09,05,6.00
2006,04,16,09,06,5.90
2006,04,16,09,07,5.90
2006,04,16,09,08,5.90
2006,04,16,09,09,6.00
2006,04,16,09,10,6.00
2006,04,16,09,11,6.00
2006,04,16,09,12,6.00
2006,04,16,09,13,6.00
2006,04,16,09,14,6.10
2006,04,16,09,15,6.10
2006,04,16,09,16,6.10
2006,04,16,09,17,6.20
2006,04,16,09,18,6.20
2006,04,16,09,19,6.20
2006,04,16,09,20,6.20
2006,04,16,09,21,6.20
2006,04,16,09,22,6.20
2006,04,16,09,23,6.30
2006,04,16,09,24,6.30
2006,04,16,09,25,6.40
2006,04,16,09,26,6.40
2006,04,16,09,27,6.40
2006,04,16,09,28,6.40
2006,04,16,09,29,6.40
2006,04,16,09,30,6.50
2006,04,16,09,31,6.60
2006,04,16,09,32,6.60
2006,04,16,09,33,6.70
2006,04,16,09,34,6.70
2006,04,16,09,35,6.80
2006,04,16,09,36,6.80
2006,04,16,09,37,6.90
2006,04,16,09,38,7.00
2006,04,16,09,39,7.10
2006,04,16,09,40,7.20
2006,04,16,09,41,7.30
2006,04,16,09,42,7.40
2006,04,16,09,43,7.50
2006,04,16,09,44,7.60
2006,04,16,09,45,7.70
2006,04,16,09,46,7.70
2006,04,16,09,47,7.80
2006,04,16,09,48,7.80
2006,04,16,09,49,7.70
2006,04,16,09,50,7.70
2006,04,16,09,51,7.70
2006,04,16,09,52,7.60
2006,04,16,09,53,7.70
2006,04,16,09,54,7.70
2006,04,16,09,55,7.80
2006,04,16,09,56,7.80
2006,04,16,09,57,8.00
2006,04,16,09,58,8.00
2006,04,16,09,59,8.10
2006,04,16,10,00,8.10
2006,04,16,10,01,8.10
2006,04,16,10,02,8.00
2006,04,16,10,03,7.90
2006,04,16,10,04,7.90
2006,04,16,10,05,7.80
2006,04,16,10,06,7.70
2006,04,16,10,07,7.60
2006,04,16,10,08,7.50
2006,04,16,10,09,7.40
2006,04,16,10,10,7.30
2006,04,16,10,11,7.30
2006,04,16,10,12,7.20
2006,04,16,10,13,7.30
2006,04,16,10,14,7.30
2006,04,16,10,15,7.30
2006,04,16,10,16,7.40
2006,04,16,10,17,7.50
2006,04,16,10,18,7.50
2006,04,16,10,19,7.60
2006,04,16,10,20,7.60
2006,04,16,10,21,7.70
2006,04,16,10,22,7.80
2006,04,16,10,23,7.90
2006,04,16,10,24,8.10
2006,04,16,10,25,8.20
2006,04,16,10,26,8.20
2006,04,16,10,27,8.20
2006,04,16,10,28,8.20
2006,04,16,10,29,8.20
2006,04,16,10,30,8.20
2006,04,16,10,31,8.20
2006,04,16,10,32,8.20
2006,04,16,10,33,8.30
2006,04,16,10,34,8.30
2006,04,16,10,35,8.30
2006,04,16,10,36,8.30
2006,04,16,10,37,8.30
2006,04,16,10,38,8.30
2006,04,16,10,39,8.20
2006,04,16,10,40,8.10
2006,04,16,10,41,8.00
2006,04,16,10,42,8.00
2006,04,16,10,43,7.90
2006,04,16,10,44,7.90
2006,04,16,10,45,7.80
2006,04,16,10,46,7.70
2006,04,16,10,47,7.50
2006,04,16,10,48,7.40
2006,04,16,10,49,7.30
2006,04,16,10,50,7.20
2006,04,16,10,51,7.20
2006,04,16,10,52,7.10
2006,04,16,10,53,7.10
2006,04,16,10,54,7.10
2006,04,16,10,55,7.20
2006,04,16,10,56,7.40
2006,04,16,10,57,7.50
2006,04,16,10,58,7.60
2006,04,16,10,59,7.70
2006,04,16,11,00,7.80
2006,04,16,11,01,7.80
2006,04,16,11,02,7.80
2006,04,16,11,03,7.90
2006,04,16,11,04,8.00
2006,04,16,11,05,8.00
2006,04,16,11,06,7.90
2006,04,16,11,07,7.80
2006,04,16,11,08,7.80
2006,04,16,11,09,7.80
2006,04,16,11,10,7.80
2006,04,16,11,11,7.90
2006,04,16,11,12,7.90
2006,04,16,11,13,8.00
2006,04,16,11,14,8.00
2006,04,16,11,15,8.00
2006,04,16,11,16,8.00
2006,04,16,11,17,8.00
2006,04,16,11,18,8.10
2006,04,16,11,19,8.10
2006,04,16,11,20,8.10
2006,04,16,11,21,8.00
2006,04,16,11,22,8.00
2006,04,16,11,23,8.10
2006,04,16,11,24,8.20
2006,04,16,11,25,8.30
2006,04,16,11,26,8.30
2006,04,16,11,27,8.30
2006,04,16,11,28,8.40
2006,04,16,11,29,8.40
2006,04,16,11,30,8.60
2006,04,16,11,31,8.70
2006,04,16,11,32,8.70
2006,04,16,11,33,8.70
2006,04,16,11,34,8.60
2006,04,16,11,35,8.60
2006,04,16,11,36,8.50
2006,04,16,11,37,8.50
2006,04,16,11,38,8.40
2006,04,16,11,39,8.40
2006,04,16,11,40,8.40
2006,04,16,11,41,8.50
2006,04,16,11,42,8.60
2006,04,16,11,43,8.70
2006,04,16,11,44,8.70
2006,04,16,11,45,8.70
2006,04,16,11,46,8.50
2006,04,16,11,47,8.40
2006,04,16,11,48,8.20
2006,04,16,11,49,8.10
2006,04,16,11,50,8.10
2006,04,16,11,51,8.10
2006,04,16,11,52,8.20
2006,04,16,11,53,8.20
2006,04,16,11,54,8.10
2006,04,16,11,55,8.00
2006,04,16,11,56,8.00
2006,04,16,11,57,8.00
2006,04,16,11,58,7.90
2006,04,16,11,59,7.90
2006,04,16,12,00,7.90
2006,04,16,12,01,7.80
2006,04,16,12,02,7.80
2006,04,16,12,03,7.90
2006,04,16,12,04,8.00
2006,04,16,12,05,8.00
2006,04,16,12,06,8.00
2006,04,16,12,07,8.00
2006,04,16,12,08,8.00
2006,04,16,12,09,8.00
2006,04,16,12,10,8.10
2006,04,16,12,11,8.20
2006,04,16,12,12,8.20
2006,04,16,12,13,8.30
2006,04,16,12,14,8.30
2006,04,16,12,15,8.40
2006,04,16,12,16,8.40
2006,04,16,12,17,8.30
2006,04,16,12,18,8.30
2006,04,16,12,19,8.30
2006,04,16,12,20,8.20
2006,04,16,12,21,8.20
2006,04,16,12,22,8.30
2006,04,16,12,23,8.40
2006,04,16,12,24,8.40
2006,04,16,12,25,8.30
2006,04,16,12,26,8.20
2006,04,16,12,27,8.30
2006,04,16,12,28,8.30
2006,04,16,12,29,8.40
2006,04,16,12,30,8.50
2006,04,16,12,31,8.60
2006,04,16,12,32,8.70
2006,04,16,12,33,8.70
2006,04,16,12,34,8.80
2006,04,16,12,35,8.80
2006,04,16,12,36,8.80
2006,04,16,12,37,8.70
2006,04,16,12,38,8.70
2006,04,16,12,39,8.60
2006,04,16,12,40,8.50
2006,04,16,12,41,8.40
2006,04,16,12,42,8.40
2006,04,16,12,43,8.40
2006,04,16,12,44,8.30
2006,04,16,12,45,8.30
2006,04,16,12,46,8.30
2006,04,16,12,47,8.40
2006,04,16,12,48,8.40
2006,04,16,12,49,8.40
2006,04,16,12,50,8.40
2006,04,16,12,51,8.30
2006,04,16,12,52,8.30
2006,04,16,12,53,8.30
2006,04,16,12,54,8.30
2006,04,16,12,55,8.20
2006,04,16,12,56,8.20
2006,04,16,12,57,8.20
2006,04,16,12,58,8.10
2006,04,16,12,59,8.10
2006,04,16,13,00,8.00
2006,04,16,13,01,8.00
2006,04,16,13,02,8.00
2006,04,16,13,03,8.00
2006,04,16,13,04,8.00
2006,04,16,13,05,8.00
2006,04,16,13,06,8.10
2006,04,16,13,07,8.20
2006,04,16,13,08,8.30
2006,04,16,13,09,8.40
2006,04,16,13,10,8.40
2006,04,16,13,11,8.40
2006,04,16,13,12,8.50
2006,04,16,13,13,8.50
2006,04,16,13,14,8.50
2006,04,16,13,15,8.40
2006,04,16,13,16,8.40
2006,04,16,13,17,8.50
2006,04,16,13,18,8.60
2006,04,16,13,19,8.70
2006,04,16,13,20,8.70
2006,04,16,13,21,8.70
2006,04,16,13,22,8.70
2006,04,16,13,23,8.90
2006,04,16,13,24,9.00
2006,04,16,13,25,9.20
2006,04,16,13,26,9.30
2006,04,16,13,27,9.30
2006,04,16,13,28,9.40
2006,04,16,13,29,9.40
2006,04,16,13,30,9.40
2006,04,16,13,31,9.40
2006,04,16,13,32,9.30
2006,04,16,13,33,9.40
2006,04,16,13,34,9.40
2006,04,16,13,35,9.50
2006,04,16,13,36,9.50
2006,04,16,13,37,9.50
2006,04,16,13,38,9.40
2006,04,16,13,39,9.20
2006,04,16,13,40,9.10
2006,04,16,13,41,9.10
2006,04,16,13,42,9.00
2006,04,16,13,43,8.90
2006,04,16,13,44,8.80
2006,04,16,13,45,8.70
2006,04,16,13,46,8.70
2006,04,16,13,47,8.80
2006,04,16,13,48,8.70
2006,04,16,13,49,8.70
2006,04,16,13,50,8.70
2006,04,16,13,51,8.90
2006,04,16,13,52,9.00
2006,04,16,13,53,9.00
2006,04,16,13,54,8.90
2006,04,16,13,55,8.90
2006,04,16,13,56,8.90
2006,04,16,13,57,9.00
2006,04,16,13,58,9.00
2006,04,16,13,59,9.00
2006,04,16,14,00,9.10
2006,04,16,14,01,9.20
2006,04,16,14,02,9.10
2006,04,16,14,03,9.00
2006,04,16,14,04,8.90
2006,04,16,14,05,8.80
2006,04,16,14,06,8.70
2006,04,16,14,07,8.70
2006,04,16,14,08,8.70
2006,04,16,14,09,8.70
2006,04,16,14,10,8.80
2006,04,16,14,11,8.80
2006,04,16,14,12,8.90
2006,04,16,14,13,9.00
2006,04,16,14,14,9.10
2006,04,16,14,15,9.20
2006,04,16,14,16,9.20
2006,04,16,14,17,9.20
2006,04,16,14,18,9.20
2006,04,16,14,19,9.10
2006,04,16,14,20,9.10
2006,04,16,14,21,9.20
2006,04,16,14,22,9.20
2006,04,16,14,23,9.30
2006,04,16,14,24,9.40
2006,04,16,14,25,9.40
2006,04,16,14,26,9.30
2006,04,16,14,27,9.20
2006,04,16,14,28,9.20
2006,04,16,14,29,9.20
2006,04,16,14,30,9.20
2006,04,16,14,31,9.30
2006,04,16,14,32,9.40
2006,04,16,14,33,9.40
2006,04,16,14,34,9.30
2006,04,16,14,35,9.40
2006,04,16,14,36,9.50
2006,04,16,14,37,9.60
2006,04,16,14,38,9.70
2006,04,16,14,39,9.70
2006,04,16,14,40,9.80
2006,04,16,14,41,9.80
2006,04,16,14,42,9.80
2006,04,16,14,43,9.80
2006,04,16,14,44,9.90
2006,04,16,14,45,9.90
2006,04,16,14,46,9.90
2006,04,16,14,47,9.90
2006,04,16,14,48,9.90
2006,04,16,14,49,9.90
2006,04,16,14,50,9.90
2006,04,16,14,51,9.90
2006,04,16,14,52,9.90
2006,04,16,14,53,9.90
2006,04,16,14,54,9.80
2006,04,16,14,55,9.70
2006,04,16,14,56,9.60
2006,04,16,14,57,9.60
2006,04,16,14,58,9.50
2006,04,16,14,59,9.40
2006,04,16,15,00,9.30
2006,04,16,15,01,9.20
2006,04,16,15,02,9.20
2006,04,16,15,03,9.20
2006,04,16,15,04,9.20
2006,04,16,15,05,9.30
2006,04,16,15,06,9.20
2006,04,16,15,07,9.20
2006,04,16,15,08,9.20
2006,04,16,15,09,9.20
2006,04,16,15,10,9.20
2006,04,16,15,11,9.20
2006,04,16,15,12,9.20
2006,04,16,15,13,9.20
2006,04,16,15,14,9.10
2006,04,16,15,15,9.10
2006,04,16,15,16,9.00
2006,04,16,15,17,8.90
2006,04,16,15,18,8.90
2006,04,16,15,19,8.80
2006,04,16,15,20,8.70
2006,04,16,15,21,8.70
2006,04,16,15,22,8.70
2006,04,16,15,23,8.70
2006,04,16,15,24,8.70
2006,04,16,15,25,8.70
2006,04,16,15,26,8.70
2006,04,16,15,27,8.70
2006,04,16,15,28,8.80
2006,04,16,15,29,8.80
2006,04,16,15,30,8.80
2006,04,16,15,31,8.90
2006,04,16,15,32,9.00
2006,04,16,15,33,9.00
2006,04,16,15,34,9.00
2006,04,16,15,35,9.00
2006,04,16,15,36,9.00
2006,04,16,15,37,9.00
2006,04,16,15,38,9.10
2006,04,16,15,39,9.10
2006,04,16,15,40,9.10
2006,04,16,15,41,9.20
2006,04,16,15,42,9.10
2006,04,16,15,43,9.10
2006,04,16,15,44,9.10
2006,04,16,15,45,9.20
2006,04,16,15,46,9.20
2006,04,16,15,47,9.20
2006,04,16,15,48,9.20
2006,04,16,15,49,9.30
2006,04,16,15,50,9.30
2006,04,16,15,51,9.20
2006,04,16,15,52,9.20
2006,04,16,15,53,9.20
2006,04,16,15,54,9.20
2006,04,16,15,55,9.20
2006,04,16,15,56,9.20
2006,04,16,15,57,9.20
2006,04,16,15,58,9.20
2006,04,16,15,59,9.20
2006,04,16,16,00,9.20
2006,04,16,16,01,9.30
2006,04,16,16,02,9.30
2006,04,16,16,03,9.30
2006,04,16,16,04,9.30
2006,04,16,16,05,9.40
2006,04,16,16,06,9.40
2006,04,16,16,07,9.40
2006,04,16,16,08,9.50
2006,04,16,16,09,9.50
2006,04,16,16,10,9.50
2006,04,16,16,11,9.50
2006,04,16,16,12,9.40
2006,04,16,16,13,9.40
2006,04,16,16,14,9.40
2006,04,16,16,15,9.40
2006,04,16,16,16,9.30
2006,04,16,16,17,9.30
2006,04,16,16,18,9.20
2006,04,16,16,19,9.20
2006,04,16,16,20,9.20
2006,04,16,16,21,9.20
2006,04,16,16,22,9.20
2006,04,16,16,23,9.20
2006,04,16,16,24,9.20
2006,04,16,16,25,9.20
2006,04,16,16,26,9.20
2006,04,16,16,27,9.20
2006,04,16,16,28,9.20
2006,04,16,16,29,9.20
2006,04,16,16,30,9.20
2006,04,16,16,31,9.30
2006,04,16,16,32,9.40
2006,04,16,16,33,9.40
2006,04,16,16,34,9.50
2006,04,16,16,35,9.50
2006,04,16,16,36,9.60
2006,04,16,16,37,9.60
2006,04,16,16,38,9.60
2006,04,16,16,39,9.60
2006,04,16,16,40,9.60
2006,04,16,16,41,9.60
2006,04,16,16,42,9.70
2006,04,16,16,43,9.70
2006,04,16,16,44,9.70
2006,04,16,16,45,9.70
2006,04,16,16,46,9.80
2006,04,16,16,47,9.80
2006,04,16,16,48,9.90
2006,04,16,16,49,10.00
2006,04,16,16,50,10.10
2006,04,16,16,51,10.10
2006,04,16,16,52,10.20
2006,04,16,16,53,10.30
2006,04,16,16,54,10.40
2006,04,16,16,55,10.30
2006,04,16,16,56,10.30
2006,04,16,16,57,10.20
2006,04,16,16,58,10.20
2006,04,16,16,59,10.20
2006,04,16,17,00,10.20
2006,04,16,17,01,10.20
2006,04,16,17,02,10.20
2006,04,16,17,03,10.30
2006,04,16,17,04,10.30
2006,04,16,17,05,10.20
2006,04,16,17,06,10.20
2006,04,16,17,07,10.10
2006,04,16,17,08,10.10
2006,04,16,17,09,10.10
2006,04,16,17,10,10.10
2006,04,16,17,11,10.10
2006,04,16,17,12,10.20
2006,04,16,17,13,10.20
2006,04,16,17,14,10.30
2006,04,16,17,15,10.30
2006,04,16,17,16,10.20
2006,04,16,17,17,10.20
2006,04,16,17,18,10.20
2006,04,16,17,19,10.30
2006,04,16,17,20,10.30
2006,04,16,17,21,10.40
2006,04,16,17,22,10.40
2006,04,16,17,23,10.50
2006,04,16,17,24,10.60
2006,04,16,17,25,10.60
2006,04,16,17,26,10.60
2006,04,16,17,27,10.60
2006,04,16,17,28,10.60
2006,04,16,17,29,10.60
2006,04,16,17,30,10.70
2006,04,16,17,31,10.70
2006,04,16,17,32,10.70
2006,04,16,17,33,10.60
2006,04,16,17,34,10.60
2006,04,16,17,35,10.70
2006,04,16,17,36,10.70
2006,04,16,17,37,10.70
2006,04,16,17,38,10.70
2006,04,16,17,39,10.70
2006,04,16,17,40,10.70
2006,04,16,17,41,10.70
2006,04,16,17,42,10.60
2006,04,16,17,43,10.60
2006,04,16,17,44,10.50
2006,04,16,17,45,10.40
2006,04,16,17,46,10.40
2006,04,16,17,47,10.40
2006,04,16,17,48,10.30
2006,04,16,17,49,10.30
2006,04,16,17,50,10.20
2006,04,16,17,51,10.10
2006,04,16,17,52,10.10
2006,04,16,17,53,10.10
2006,04,16,17,54,10.10
2006,04,16,17,55,10.10
2006,04,16,17,56,10.20
2006,04,16,17,57,10.30
2006,04,16,17,58,10.40
2006,04,16,17,59,10.40
2006,04,16,18,00,10.50
2006,04,16,18,01,10.60
2006,04,16,18,02,10.60
2006,04,16,18,03,10.70